Regional Weather Roundup
Issued by NWS Goodland, KS

Home | Current Version | Previous Version | Graphics & Text | Print | Product List | Glossary On
Versions: 1 2 3 4 5 6 7 8 9 10 11 12 13 14 15 16 17 18 19 20 21 22 23 24 25 26 27 28 29 30 31 32 33 34 35 36 37 38 39 40 41 42 43 44 45 46 47 48 49 50
000
ASUS43 KGLD 232059
RWRGLD

GOODLAND FORECAST AREA HOURLY WEATHER ROUNDUP
NATIONAL WEATHER SERVICE GOODLAND KS
300 PM MDT SUN APR 23 2017

...OFFICIAL OBSERVATIONS...

CITY           SKY/WX    TMP DP  RH WIND       PRES   REMARKS
GOODLAND KS    CLOUDY    68  39  34 S30G39    29.88F
HILL CITY KS   MOSUNNY   72  28  19 S25G32    29.96F
IMPERIAL NEB   CLOUDY    68  38  33 S26G40    29.84F
MCCOOK NEB     CLOUDY    71  36  27 S23G41    29.87F
AKRON CO       CLOUDY    68  38  33 S21G28    29.82F
BURLINGTON CO  NOT AVBL
LIMON CO       CLOUDY    64  37  36 S20G26    29.88F
$$

...UNOFFICIAL OBSERVATIONS...

CITY           SKY/WX    TMP DP  RH WIND       PRES   REMARKS
LENORA KS        N/A     68  32  26 MISG        N/A
NORTON KS      SUNNY     68  21  17 S22G32    29.94F
SHARON SPRINGS   N/A     66  42  42 S26G35      N/A
TRENTON NEB      N/A     70  32  24 SW16G24     N/A
KIT CARSON CO    N/A     69  39  33 MISG        N/A
YUMA CO        FAIR      64  37  36 S23G30    29.83F
$$



USA.gov is the U.S. government's official web portal to all federal, state and local government web resources and services.